[[{"header":{"parameterUnit":"m.s-1","parameterCategory":1,"la1":30.2992,"la2":30.254,"lo1":-89.0895,"lo2":-89.0443,"dy":0.0025,"dx":0.0025,"nx":19,"ny":19,"refTime":"2026-04-26T03:00:00:Z","depth":0,"parameterNumber":2,"parameterNumberName":"U-component_of_WINDS"},"data":[0,0,0,1.4823,1.4825,1.4891,1.4891,1.4977,1.4978,0,0,0,0,0,0,0,0,0,0,0,1.4805,1.4806,1.4823,1.4825,1.4891,1.4891,1.4977,1.4978,0,0,0,0,0,0,0,0,0,0,0,1.4805,1.4806,1.4807,1.4825,1.489,1.4891,1.4977,1.4926,0,0,0,0,0,0,0,0,0,0,1.4862,1.4847,1.4806,1.4807,1.4826,1.489,1.4891,1.4924,1.4929,1.4948,0,1.4965,0,1.4973,1.4984,1.4984,0,0,0,1.4824,1.4842,1.4859,1.4807,1.4826,1.489,1.4861,1.4927,1.4933,1.4955,1.4966,1.497,1.4974,1.4984,1.4985,1.5094,1.5094,0,0,1.482,1.4818,1.4854,1.4863,1.4853,1.4859,1.4863,1.4931,1.4942,1.4967,1.4971,1.4976,1.4985,1.4985,1.5093,1.5094,0,0,0,1.481,1.4816,1.483,1.4859,1.4871,1.486,1.4865,1.4939,1.4944,1.4972,1.4977,1.4985,1.4986,1.5093,1.5094,1.5117,0,0,0,1.4808,1.481,1.4829,1.4828,1.487,1.4906,1.4872,1.494,1.4947,1.4976,1.4985,1.4987,1.5092,1.5093,1.5115,1.5129,0,0,0,1.4801,1.4809,1.4819,1.4828,1.4856,1.4905,1.4914,1.4941,1.495,1.4984,1.4987,1.5092,1.5093,1.5114,1.5126,1.5155,0,0,0,1.4792,1.4841,1.4819,1.4875,1.4855,1.492,1.4913,1.4962,1.4994,1.4986,1.5092,1.5093,1.5113,1.5124,1.5153,1.5178,1.5189,0,0,1.4852,1.4848,1.4881,1.4864,1.4931,1.491,1.498,1.5013,1.5019,1.5068,1.5071,1.5116,1.5126,1.5155,1.5252,1.526,0,0,0,1.4899,1.4923,1.4941,1.4971,1.4996,1.5018,1.5039,1.5051,1.5093,1.5044,1.5135,1.5141,1.5158,1.517,1.5178,1.5191,1.5099,1.5099,1.5099,1.4981,1.4985,1.5039,1.505,1.5079,1.51,1.5123,1.5142,1.5139,1.516,1.5175,1.5233,1.5247,1.5252,1.5267,1.519,1.519,1.519,1.519,1.5069,1.5102,1.5094,1.5144,1.5147,1.5189,1.521,1.5206,1.5245,1.5223,1.5238,1.5213,1.5262,1.5274,1.5192,1.5191,1.5191,1.5191,1.5191,1.5122,1.5138,1.515,1.5192,1.5224,1.5234,1.5271,1.5274,1.5276,1.5291,1.5305,1.5305,1.5303,1.5298,1.5298,1.5299,1.5299,1.5299,1.5299,1.5171,1.5184,1.5215,1.5244,1.5262,1.5287,1.5307,1.5325,1.5345,1.5344,1.5344,1.5337,1.5266,1.5247,1.5302,1.5302,1.5301,1.5301,1.5301,1.5255,1.5236,1.5284,1.5302,1.5335,1.5366,1.5368,1.5404,1.5419,1.5437,1.5427,1.5374,1.537,1.5365,1.5349,1.5427,1.5427,1.5427,1.5427,1.5299,1.5297,1.5344,1.5373,1.5401,1.5408,1.546,1.5475,1.5488,1.5497,1.5487,1.5466,1.5461,1.546,1.5452,1.5437,1.5536,1.5536,1.5536,1.535,1.535,1.5395,1.5406,1.5432,1.5454,1.5502,1.5535,1.5546,1.5541,1.5504,1.5499,1.5467,1.5457,1.545,1.5438,1.5411,0,0]},{"header":{"parameterUnit":"m.s-1","parameterCategory":1,"la1":30.2992,"la2":30.254,"lo1":-89.0895,"lo2":-89.0443,"dy":0.0025,"dx":0.0025,"nx":19,"ny":19,"refTime":"2026-04-26T03:00:00:Z","depth":0,"parameterNumber":3,"parameterNumberName":"V-component_of_WINDS"},"data":[0,0,0,2.1633,2.1631,2.1489,2.1489,2.1321,2.132,0,0,0,0,0,0,0,0,0,0,0,2.1687,2.1686,2.1633,2.163,2.149,2.1489,2.1321,2.132,0,0,0,0,0,0,0,0,0,0,0,2.1687,2.1686,2.1685,2.163,2.149,2.1489,2.1322,2.1422,0,0,0,0,0,0,0,0,0,0,2.1557,2.1619,2.1686,2.1685,2.1629,2.149,2.1489,2.1427,2.1416,2.1392,0,2.1377,0,2.1346,2.131,2.1309,0,0,0,2.162,2.1628,2.158,2.1685,2.1628,2.149,2.155,2.1421,2.1408,2.1377,2.1374,2.1368,2.1343,2.1309,2.1308,2.1211,2.1211,0,0,2.1628,2.1667,2.1589,2.1573,2.16,2.1555,2.1546,2.1413,2.1411,2.1374,2.1363,2.1341,2.1308,2.1307,2.121,2.1211,0,0,0,2.1657,2.1672,2.1627,2.158,2.1554,2.1551,2.1541,2.1416,2.1399,2.1361,2.1339,2.1307,2.1305,2.121,2.1211,2.1251,0,0,0,2.1661,2.1689,2.1631,2.1653,2.1557,2.1484,2.1548,2.1408,2.1392,2.134,2.1307,2.1304,2.121,2.121,2.125,2.1262,0,0,0,2.1692,2.1693,2.1677,2.1656,2.1597,2.1486,2.146,2.1404,2.1378,2.1309,2.1303,2.121,2.121,2.1248,2.126,2.1248,0,0,0,2.1734,2.1712,2.1678,2.1645,2.1599,2.1513,2.146,2.1393,2.1339,2.1306,2.121,2.1211,2.1248,2.1259,2.1248,2.1245,2.1248,0,0,2.1728,2.1713,2.169,2.1656,2.1587,2.1531,2.1466,2.1377,2.1333,2.1253,2.125,2.125,2.126,2.1248,2.1253,2.1256,0,0,0,2.1701,2.1685,2.1659,2.1611,2.1546,2.1489,2.1408,2.1374,2.1305,2.1302,2.1241,2.1246,2.1237,2.1234,2.1236,2.1226,2.1211,2.1211,2.1211,2.1747,2.1695,2.1653,2.1585,2.1539,2.1455,2.1412,2.1352,2.131,2.1297,2.1273,2.1283,2.1281,2.1282,2.1272,2.1268,2.1268,2.1268,2.1268,2.1732,2.1702,2.165,2.1591,2.1535,2.1483,2.1401,2.1374,2.1315,2.1296,2.1286,2.1269,2.1287,2.1275,2.127,2.127,2.127,2.1269,2.1269,2.1756,2.1732,2.1696,2.1622,2.157,2.1499,2.1447,2.1396,2.1347,2.1337,2.1306,2.1305,2.1297,2.1326,2.1326,2.1326,2.1326,2.1326,2.1326,2.1795,2.1752,2.1717,2.1647,2.161,2.1554,2.147,2.1431,2.1373,2.134,2.134,2.1299,2.1299,2.13,2.1326,2.1326,2.1326,2.1326,2.1326,2.1799,2.1791,2.1736,2.1699,2.1612,2.1564,2.1501,2.1425,2.1385,2.136,2.1321,2.133,2.131,2.1307,2.1308,2.1334,2.1334,2.1334,2.1334,2.1819,2.1805,2.1737,2.1682,2.1622,2.156,2.1496,2.143,2.1359,2.133,2.1319,2.1315,2.1315,2.1294,2.1292,2.1292,2.1313,2.1313,2.1313,2.1818,2.1796,2.1753,2.1689,2.1617,2.1556,2.1493,2.1428,2.1346,2.1311,2.1306,2.1307,2.13,2.1301,2.1266,2.1264,2.1262,0,0]}]]